Wind_Speed
5 5 5 5 6 6 7 8 8 9 9 10 11 11 12 13 13 13 13 13 13 13 13 13 13 13 12 12 12 12 12 12 12 12 13 13 13 12 12 13 12 12 12
6 6 6 7 7 8 8 9 10 10 10 11 11 12 13 14 14 14 14 14 14 14 14 14 14 14 13 13 13 13 13 13 13 13 13 13 13 13 13 13 13 13 13
8 8 8 8 8 9 9 10 10 11 11 12 12 13 13 14 15 15 14 15 15 15 16 15 15 15 15 14 14 14 14 14 14 14 13 13 14 14 14 14 14 13 13
10 10 10 10 9 10 10 10 11 12 12 13 13 14 14 15 15 15 15 15 16 16 16 16 16 16 16 16 16 15 15 15 14 14 14 14 14 14 14 14 15 15 14
10 10 11 11 11 11 11 12 12 13 13 14 14 15 15 15 16 16 16 16 16 16 16 16 16 16 16 17 16 16 16 15 15 15 15 15 16 16 15 15 15 16 16
11 12 12 13 13 13 13 13 13 14 14 15 15 15 16 16 17 17 17 17 17 17 17 17 17 17 17 17 17 17 17 16 16 16 16 16 16 17 16 16 16 16 17
12 13 14 13 13 13 14 14 14 14 14 15 16 16 17 17 17 18 18 17 17 17 17 17 17 17 17 17 17 18 18 17 17 17 17 17 17 17 18 18 18 17 17
12 13 14 13 14 14 14 14 14 14 15 15 16 17 17 17 18 17 18 17 17 17 17 17 18 18 18 18 18 18 18 18 18 18 17 17 17 18 19 19 19 19 19
14 15 14 13 14 14 14 14 15 15 16 16 17 17 17 17 17 17 17 17 17 17 18 18 19 19 18 18 18 18 18 19 19 18 18 18 19 20 20 20 20 20 20
14 15 14 14 15 15 15 15 15 16 16 17 18 18 17 18 18 18 18 18 19 19 19 19 19 19 19 19 19 19 19 19 19 19 19 20 20 21 21 21 21 21 21
15 15 16 16 16 16 16 16 17 17 17 18 19 19 18 18 18 19 19 19 20 20 20 20 19 19 20 20 20 20 20 20 21 21 21 21 21 21 22 22 22 22 22
16 16 17 16 16 16 16 17 18 18 18 18 19 19 19 18 19 19 19 20 21 21 20 20 20 20 20 20 20 21 21 21 21 21 21 22 22 23 23 23 23 23 23
18 17 16 16 17 18 18 18 18 19 19 19 19 19 19 19 19 20 20 21 21 21 21 21 21 21 21 21 22 21 22 22 22 22 22 22 23 23 24 23 23 23 24
19 18 17 18 18 19 20 19 19 20 20 19 19 20 19 19 19 20 20 21 20 20 20 21 21 21 21 22 23 23 23 23 23 22 22 23 23 23 24 24 24 24 24
20 19 18 17 18 20 20 19 20 20 19 18 19 19 19 19 20 20 21 21 22 21 21 20 20 20 21 21 22 23 23 23 23 23 23 24 23 23 23 24 25 26 26
21 20 18 18 19 21 21 20 20 20 20 20 19 19 20 21 21 22 22 22 22 22 22 22 21 21 21 22 22 22 22 22 23 24 24 23 24 23 23 23 25 26 27
21 20 19 20 21 21 20 21 21 21 21 21 21 21 22 23 23 23 23 24 23 23 22 22 22 23 23 22 22 22 23 23 23 23 24 24 24 24 24 24 25 26 27
22 21 21 22 22 22 22 22 22 22 22 22 23 23 24 25 24 25 24 24 24 24 23 24 23 24 24 23 23 24 24 24 24 24 24 24 24 25 25 25 26 27 28
22 23 22 22 22 22 22 22 22 22 23 23 24 24 25 25 25 24 24 24 24 24 25 25 24 25 24 24 24 24 24 24 24 24 24 24 24 25 26 27 27 28 28
21 22 22 22 22 22 23 23 23 23 24 24 26 26 26 26 24 24 25 25 25 25 25 25 25 25 25 25 24 25 25 25 25 25 25 25 26 26 27 27 28 29 29
19 20 21 22 22 22 22 23 23 23 24 25 27 27 27 26 25 25 26 26 25 25 26 26 25 25 26 25 25 25 24 25 25 25 25 26 26 26 27 28 28 28 29
19 18 21 22 22 22 23 23 23 25 25 26 28 29 27 26 27 27 27 27 26 26 26 27 26 26 26 25 26 25 25 26 26 26 27 27 27 27 27 27 28 28 28
20 21 20 21 22 22 23 24 25 25 26 28 28 28 29 28 28 28 27 27 27 27 26 26 25 25 26 26 25 26 26 25 25 26 26 26 26 26 26 27 27 27 27
20 20 21 21 22 23 24 24 25 26 27 28 28 27 28 29 28 27 27 27 27 27 27 27 27 26 27 27 27 27 26 25 25 25 26 26 25 26 25 26 27 28 28
19 20 21 21 21 23 25 26 26 27 27 27 27 27 27 27 27 27 27 27 28 28 28 28 28 28 28 27 27 27 27 27 26 26 25 25 26 26 25 26 26 27 28
18 20 20 20 22 24 25 25 26 27 27 27 27 27 26 27 27 27 27 27 27 27 27 27 28 28 28 28 28 27 27 27 27 26 26 26 26 26 26 27 27 27 27
Wind_Direction
300 304 307 309 309 304 304 305 304 302 303 306 307 306 306 306 308 310 311 309 308 307 306 304 302 299 296 293 291 289 287 286 283 281 278 275 273 270 265 263 262 261 261
291 292 295 300 302 303 302 302 301 300 299 300 303 303 302 302 303 303 304 305 305 305 304 303 301 299 295 292 290 288 287 286 284 283 280 277 275 273 269 265 262 262 262
285 282 289 292 294 297 297 299 300 300 299 299 298 299 299 298 299 298 299 300 302 301 301 301 299 298 295 293 291 289 288 288 287 286 284 280 278 276 272 267 264 262 261
282 276 280 285 289 294 293 294 295 297 296 296 296 297 297 297 297 296 297 298 299 299 299 299 297 295 294 293 291 290 289 288 289 288 284 281 278 275 271 268 265 262 258
280 277 278 283 284 287 289 290 292 294 294 294 294 296 296 297 297 296 297 298 298 298 298 297 296 295 294 293 291 290 289 289 288 287 284 281 279 275 270 268 268 262 257
281 281 280 284 283 285 286 288 291 292 292 294 294 295 296 295 298 298 298 298 298 297 296 296 295 294 294 293 291 289 287 287 287 285 282 279 277 274 272 271 267 262 259
276 280 281 281 282 283 283 284 287 290 292 293 294 296 296 295 296 297 298 298 297 297 296 295 295 294 293 292 291 289 287 287 285 282 280 278 275 273 271 269 267 265 261
274 282 284 284 283 281 282 284 286 288 290 292 293 297 297 296 296 297 298 297 297 298 296 294 294 293 290 289 289 290 288 286 284 281 280 278 275 273 270 268 268 266 262
278 281 282 283 284 283 284 287 286 287 289 290 293 294 294 296 296 296 296 296 295 296 296 294 293 292 290 288 288 288 287 286 283 280 278 276 274 272 271 270 269 267 263
278 279 279 280 282 282 285 288 289 289 290 291 292 292 292 293 294 294 294 294 294 294 294 293 292 291 289 288 287 286 286 285 282 279 278 276 274 271 272 270 268 266 263
276 274 273 277 281 284 286 286 288 289 291 292 292 292 292 292 292 292 292 293 294 294 293 291 289 289 288 288 288 286 285 284 282 279 277 277 275 273 271 269 265 264 262
274 274 274 274 279 281 283 285 286 287 290 293 293 290 289 289 290 291 292 293 293 294 294 293 291 288 288 288 288 286 285 284 284 281 277 276 275 273 270 267 264 263 261
273 274 275 273 277 279 281 284 286 288 288 290 291 290 288 288 290 291 292 293 293 294 294 293 292 290 289 290 289 287 285 283 282 281 280 278 276 272 268 266 265 263 260
277 277 274 274 278 280 280 281 283 286 287 288 290 290 290 291 291 292 291 291 292 294 296 294 292 292 291 290 288 286 285 283 281 280 280 278 276 274 269 266 264 262 261
277 276 275 275 279 281 280 280 284 286 288 290 289 289 291 292 293 294 294 294 292 291 293 293 292 293 294 293 290 287 287 284 282 280 279 277 275 273 270 268 265 264 262
275 275 275 276 277 279 278 281 282 284 286 289 289 291 292 293 295 295 294 295 295 292 293 293 292 292 292 292 290 288 285 284 283 282 280 277 275 273 271 269 267 266 263
275 273 275 278 279 276 276 279 281 283 287 289 291 294 294 294 294 295 295 297 297 296 295 292 291 292 290 290 289 289 286 286 286 283 280 277 276 274 272 270 268 267 264
276 277 278 280 278 275 278 280 282 284 285 289 289 291 293 295 294 294 294 296 296 296 295 293 289 292 291 289 289 290 288 286 285 284 282 279 276 274 273 272 269 267 265
277 277 279 280 277 275 279 279 281 283 287 287 288 291 293 293 292 295 294 294 294 295 294 293 289 292 290 290 290 291 289 287 287 285 283 281 279 278 277 273 271 268 266
278 278 279 279 276 276 278 278 280 283 287 288 289 292 292 292 290 293 294 294 295 294 294 293 290 291 290 290 290 290 288 286 287 285 282 281 280 279 278 276 273 270 267
278 276 274 275 275 275 279 281 283 285 287 287 289 292 293 291 289 291 292 292 293 294 294 293 292 291 290 290 290 290 288 287 288 286 283 282 281 279 277 276 273 271 268
278 278 273 276 277 277 280 283 285 286 286 288 291 293 294 293 290 290 291 291 292 292 293 293 292 290 291 291 289 289 288 287 287 285 283 283 282 279 277 275 272 270 266
280 283 280 279 278 279 281 282 284 286 287 290 292 292 293 293 291 290 290 290 290 291 292 292 290 289 290 290 289 290 288 285 286 287 286 285 282 279 277 275 270 266 265
283 286 285 286 284 283 284 284 285 287 290 290 291 293 293 294 292 290 290 290 290 291 291 290 289 289 289 289 290 289 288 287 287 285 285 285 282 280 277 274 269 267 267
290 290 288 289 288 289 289 289 288 290 290 292 292 291 291 292 293 293 293 292 290 290 291 290 288 289 289 289 289 289 288 288 288 286 284 284 282 281 278 274 270 269 269
292 292 290 291 292 292 291 290 290 293 294 295 293 291 292 293 293 293 293 292 291 289 290 290 289 290 289 290 290 289 289 289 289 287 284 283 282 280 279 276 273 272 271
Height
5898 5898 5898 5898 5898 5897 5897 5897 5896 5895 5895 5894 5893 5892 5891 5890 5889 5887 5886 5885 5884 5882 5881 5880 5879 5878 5877 5875 5874 5873 5872 5871 5871 5870 5869 5868 5868 5867 5867 5867 5866 5866 5866
5897 5897 5897 5897 5897 5896 5896 5896 5895 5894 5894 5893 5892 5890 5889 5888 5887 5886 5885 5884 5882 5881 5879 5878 5877 5876 5875 5873 5872 5871 5870 5869 5868 5867 5867 5866 5865 5865 5864 5864 5864 5864 5863
5896 5896 5896 5896 5896 5895 5895 5894 5894 5893 5892 5891 5890 5889 5888 5887 5885 5884 5883 5882 5881 5879 5878 5876 5875 5873 5872 5871 5870 5869 5868 5867 5866 5865 5864 5863 5862 5862 5861 5861 5861 5861 5861
5895 5895 5895 5895 5894 5894 5893 5893 5892 5892 5891 5890 5889 5887 5886 5885 5883 5882 5881 5880 5878 5877 5876 5874 5873 5871 5870 5868 5867 5866 5865 5864 5863 5862 5861 5860 5859 5859 5859 5858 5858 5858 5858
5893 5893 5893 5893 5892 5892 5892 5891 5890 5889 5889 5888 5887 5885 5884 5882 5881 5880 5878 5877 5876 5875 5873 5872 5870 5869 5868 5866 5865 5863 5862 5861 5860 5859 5858 5857 5856 5856 5855 5855 5855 5855 5855
5891 5891 5891 5890 5890 5890 5889 5889 5888 5887 5886 5885 5884 5883 5881 5880 5878 5877 5876 5875 5873 5872 5871 5869 5868 5866 5865 5863 5862 5860 5859 5858 5857 5856 5855 5855 5854 5853 5852 5852 5851 5852 5852
5889 5889 5888 5888 5887 5887 5887 5886 5885 5885 5884 5882 5881 5880 5878 5877 5876 5875 5873 5872 5871 5869 5868 5866 5865 5863 5862 5860 5859 5857 5856 5855 5854 5853 5852 5851 5850 5850 5849 5848 5848 5848 5848
5886 5886 5886 5885 5885 5884 5884 5883 5883 5882 5881 5880 5878 5877 5876 5874 5873 5872 5870 5869 5867 5866 5864 5863 5861 5860 5858 5857 5855 5854 5853 5852 5851 5849 5849 5848 5847 5846 5845 5845 5844 5844 5844
5884 5883 5883 5882 5882 5882 5881 5880 5880 5879 5877 5876 5875 5874 5872 5871 5870 5868 5867 5865 5864 5862 5861 5859 5858 5856 5854 5853 5851 5850 5849 5848 5846 5846 5845 5844 5843 5842 5842 5841 5840 5840 5840
5881 5880 5880 5879 5879 5879 5878 5877 5876 5875 5874 5873 5872 5870 5869 5867 5866 5865 5863 5862 5860 5859 5857 5856 5854 5852 5850 5849 5847 5846 5844 5843 5842 5841 5840 5839 5838 5838 5837 5836 5836 5836 5836
5877 5877 5876 5876 5876 5875 5875 5874 5873 5872 5871 5869 5868 5867 5865 5864 5862 5861 5860 5858 5857 5855 5853 5852 5850 5848 5846 5844 5843 5841 5840 5839 5837 5836 5835 5834 5833 5832 5832 5831 5831 5831 5831
5874 5873 5873 5873 5872 5872 5871 5870 5869 5868 5867 5866 5864 5863 5861 5860 5859 5857 5856 5854 5852 5851 5849 5847 5845 5843 5841 5839 5838 5836 5835 5834 5832 5831 5830 5829 5828 5827 5826 5826 5825 5825 5826
5870 5870 5870 5870 5869 5868 5867 5866 5865 5864 5863 5861 5860 5859 5857 5856 5854 5853 5851 5849 5848 5846 5844 5842 5840 5838 5836 5835 5833 5831 5830 5828 5827 5826 5825 5823 5822 5821 5820 5820 5820 5820 5820
5866 5865 5865 5865 5865 5864 5863 5862 5861 5860 5858 5857 5856 5855 5853 5851 5849 5848 5846 5844 5843 5841 5839 5837 5835 5833 5831 5830 5828 5826 5824 5823 5822 5820 5819 5817 5816 5815 5814 5814 5814 5814 5814
5862 5861 5860 5861 5860 5859 5858 5857 5856 5855 5854 5852 5851 5850 5848 5847 5845 5843 5841 5839 5838 5836 5833 5831 5830 5828 5826 5824 5822 5821 5819 5817 5816 5814 5813 5811 5810 5809 5808 5808 5808 5807 5807
5857 5857 5856 5856 5855 5854 5853 5852 5851 5850 5848 5847 5846 5844 5843 5842 5840 5838 5836 5834 5831 5829 5828 5826 5824 5823 5821 5819 5817 5815 5813 5811 5810 5808 5807 5805 5804 5803 5802 5802 5801 5801 5800
5852 5852 5851 5851 5850 5849 5847 5846 5845 5845 5843 5842 5841 5839 5838 5837 5835 5833 5831 5829 5826 5825 5822 5821 5819 5817 5815 5813 5812 5810 5807 5805 5803 5802 5800 5799 5797 5796 5796 5795 5794 5794 5793
5847 5847 5847 5846 5846 5845 5844 5843 5841 5840 5838 5837 5836 5834 5833 5831 5829 5827 5825 5823 5821 5819 5817 5815 5812 5811 5809 5807 5805 5803 5801 5799 5797 5795 5793 5792 5791 5789 5788 5787 5787 5786 5786
5842 5842 5841 5841 5840 5840 5839 5838 5837 5835 5834 5832 5831 5829 5827 5825 5823 5821 5819 5817 5815 5813 5811 5809 5806 5804 5803 5801 5799 5797 5795 5793 5790 5788 5786 5785 5783 5782 5781 5779 5779 5778 5778
5837 5837 5836 5835 5834 5834 5833 5832 5831 5830 5828 5827 5825 5823 5821 5818 5816 5815 5813 5811 5809 5806 5804 5802 5801 5798 5796 5794 5792 5790 5788 5786 5783 5781 5779 5777 5776 5774 5773 5772 5770 5770 5769
5832 5831 5830 5829 5828 5828 5827 5826 5826 5824 5823 5821 5819 5816 5814 5811 5810 5808 5806 5804 5802 5800 5798 5796 5793 5791 5789 5787 5785 5783 5781 5779 5776 5774 5772 5770 5768 5766 5765 5763 5762 5761 5761
5826 5825 5825 5824 5823 5822 5821 5820 5819 5818 5816 5814 5812 5810 5808 5805 5803 5801 5799 5797 5795 5793 5791 5789 5786 5784 5782 5780 5778 5776 5774 5772 5769 5767 5764 5762 5760 5758 5757 5755 5754 5753 5752
5822 5821 5820 5819 5817 5816 5815 5814 5813 5811 5810 5808 5806 5804 5801 5799 5797 5794 5792 5790 5788 5786 5783 5782 5779 5777 5775 5772 5770 5769 5767 5764 5762 5759 5757 5754 5752 5750 5748 5747 5746 5745 5744
5817 5816 5815 5814 5812 5810 5809 5808 5806 5805 5803 5801 5798 5796 5794 5792 5790 5787 5785 5783 5781 5778 5776 5774 5772 5770 5767 5765 5763 5761 5759 5756 5755 5752 5750 5747 5744 5742 5740 5739 5738 5737 5736
5812 5811 5809 5807 5806 5805 5803 5801 5799 5798 5796 5793 5791 5789 5787 5785 5783 5780 5778 5776 5773 5771 5769 5767 5764 5762 5760 5757 5755 5753 5750 5748 5746 5744 5742 5739 5737 5734 5732 5731 5730 5729 5728
5808 5806 5804 5801 5800 5799 5797 5795 5793 5791 5788 5786 5784 5782 5780 5778 5775 5773 5771 5768 5766 5764 5762 5759 5757 5754 5752 5750 5747 5745 5742 5740 5738 5735 5733 5731 5729 5727 5725 5723 5721 5720 5720